Waupaca, WI

2:45 AM CDT on August 31, 2016 (GMT -0500)
Waupaca Municipal

Weather History for KPCZ - April, 2014

Change the Weather History Date:

Saturday, April 5, 2014

  Actual Average Record
Temperature  
Mean Temperature 40 °F -  
Max Temperature 53 °F 50 °F 75 °F (2005)
Min Temperature 28 °F 29 °F 14 °F (1972)
Degree Days  
Heating Degree Days 24    
Moisture  
Dew Point 25 °F    
Average Humidity 58    
Maximum Humidity 86    
Minimum Humidity 28    
Precipitation  
Precipitation 0.00 in - - ()
Sea Level Pressure  
Sea Level Pressure 30.08 in    
Wind  
Wind Speed 7 mph (West)    
Max Wind Speed 15 mph    
Max Gust Speed 18 mph    
Visibility 10 miles    
Events      
Averages and records for this station are not official NWS values.
T = Trace of Precipitation, MM = Missing Value Source: NWS Daily Summary

Daily Weather History Graph

Daily Weather History Graph

Search for Another Location

Airport or City:

Trip Planner

Search our weather history database for the weather conditions in past years. The results will help you decide how hot, cold, wet, or windy it might be!

Date:

Astronomy

Apr. 05, 2014 Rise Set
Actual Time 6:29 AM CDT 7:28 PM CDT
Civil Twilight 6:00 AM CDT 7:57 PM CDT
Nautical Twilight 5:25 AM CDT 8:33 PM CDT
Astronomical Twilight 4:48 AM CDT 9:10 PM CDT
Moon 10:29 AM CDT (4/5) 12:46 AM CDT (4/5)
Length of Visible Light 13h 57m
Length of Day
12h 58m
Waxing Crescent, 34% of the Moon is Illuminated
Apr 5
Waxing Crescent
Apr 7
First Quarter
Apr 15
Full
Apr 22
Last Quarter
Apr 29
New

Hourly Weather History & Observations

Time (CDT) Temp. Windchill Dew Point Humidity Pressure Visibility Wind Dir Wind Speed Gust Speed Precip Events Conditions
12:18 AM 33.8 °F 25.3 °F 26.6 °F 75% 29.96 in 10.0 mi NW 11.5 mph - N/A   Overcast
12:38 AM 33.8 °F 25.3 °F 24.8 °F 70% 29.97 in 10.0 mi NW 11.5 mph 16.1 mph N/A   Scattered Clouds
12:58 AM 33.8 °F 26.4 °F 24.8 °F 70% 29.98 in 10.0 mi WNW 9.2 mph - N/A   Clear
1:20 AM 32.0 °F 27.5 °F 24.8 °F 75% 29.99 in 10.0 mi WNW 4.6 mph - N/A   Clear
1:40 AM 30.2 °F 23.4 °F 24.8 °F 80% 30.00 in 10.0 mi West 6.9 mph - N/A   Clear
1:58 AM 30.2 °F 25.4 °F 24.8 °F 80% 30.00 in 10.0 mi West 4.6 mph - N/A   Clear
2:18 AM 30.2 °F 24.3 °F 24.8 °F 80% 30.00 in 10.0 mi West 5.8 mph - N/A   Clear
2:38 AM 30.2 °F 25.4 °F 24.8 °F 80% 30.01 in 10.0 mi West 4.6 mph - N/A   Clear
3:00 AM 28.4 °F 22.2 °F 24.8 °F 86% 30.02 in 10.0 mi West 5.8 mph - N/A   Clear
3:18 AM 30.2 °F 25.4 °F 24.8 °F 80% 30.02 in 10.0 mi West 4.6 mph - N/A   Clear
3:38 AM 30.2 °F 26.7 °F 24.8 °F 80% 30.02 in 10.0 mi West 3.5 mph - N/A   Clear
3:58 AM 30.2 °F 25.4 °F 24.8 °F 80% 30.03 in 10.0 mi WNW 4.6 mph - N/A   Clear
4:20 AM 28.4 °F 24.6 °F 24.8 °F 86% 30.04 in 10.0 mi West 3.5 mph - N/A   Clear
4:38 AM 28.4 °F 23.3 °F 24.8 °F 86% 30.04 in 10.0 mi West 4.6 mph - N/A   Clear
4:58 AM 28.4 °F 24.6 °F 23.0 °F 80% 30.05 in 10.0 mi West 3.5 mph - N/A   Clear
5:18 AM 28.4 °F 24.6 °F 24.8 °F 86% 30.06 in 10.0 mi West 3.5 mph - N/A   Clear
5:38 AM 28.4 °F 24.6 °F 24.8 °F 86% 30.06 in 10.0 mi WNW 3.5 mph - N/A   Clear
5:58 AM 28.4 °F 23.3 °F 24.8 °F 86% 30.07 in 10.0 mi WNW 4.6 mph - N/A   Clear
6:18 AM 28.4 °F 23.3 °F 24.8 °F 86% 30.07 in 10.0 mi West 4.6 mph - N/A   Clear
6:38 AM 28.4 °F 24.6 °F 24.8 °F 86% 30.08 in 10.0 mi WNW 3.5 mph - N/A   Clear
6:58 AM 28.4 °F 23.3 °F 24.8 °F 86% 30.09 in 10.0 mi WNW 4.6 mph - N/A   Clear
7:18 AM 30.2 °F 25.4 °F 24.8 °F 80% 30.10 in 10.0 mi West 4.6 mph - N/A   Clear
7:38 AM 30.2 °F 25.4 °F 24.8 °F 80% 30.11 in 10.0 mi West 4.6 mph - N/A   Clear
7:58 AM 32.0 °F 26.4 °F 26.6 °F 80% 30.12 in 10.0 mi West 5.8 mph - N/A   Clear
8:18 AM 33.8 °F 27.7 °F 26.6 °F 75% 30.12 in 10.0 mi West 6.9 mph - N/A   Clear
8:39 AM 35.6 °F 30.7 °F 26.6 °F 70% 30.13 in 10.0 mi WNW 5.8 mph - N/A   Clear
8:58 AM 37.4 °F 32.8 °F 26.6 °F 65% 30.13 in 10.0 mi West 5.8 mph - N/A   Clear
9:18 AM 37.4 °F 32.8 °F 26.6 °F 65% 30.14 in 10.0 mi West 5.8 mph - N/A   Clear
9:38 AM 39.2 °F 34.2 °F 28.4 °F 65% 30.14 in 10.0 mi West 6.9 mph - N/A   Clear
9:58 AM 41.0 °F 35.8 °F 28.4 °F 61% 30.14 in 10.0 mi West 8.1 mph - N/A   Clear
10:18 AM 42.8 °F 38.6 °F 26.6 °F 53% 30.14 in 10.0 mi West 6.9 mph - N/A   Clear
10:38 AM 44.6 °F 39.2 °F 24.8 °F 46% 30.14 in 10.0 mi West 10.4 mph - N/A   Clear
10:58 AM 44.6 °F 39.7 °F 26.6 °F 49% 30.14 in 10.0 mi West 9.2 mph - N/A   Clear
11:18 AM 46.4 °F 41.9 °F 24.8 °F 43% 30.14 in 10.0 mi West 9.2 mph - N/A   Clear
11:38 AM 46.4 °F 41.5 °F 23.0 °F 40% 30.14 in 10.0 mi WSW 10.4 mph - N/A   Clear
11:58 AM 46.4 °F 41.5 °F 21.2 °F 37% 30.14 in 10.0 mi West 10.4 mph 16.1 mph N/A   Clear
12:18 PM 46.4 °F 41.5 °F 21.2 °F 37% 30.14 in 10.0 mi West 10.4 mph - N/A   Clear
12:38 PM 48.2 °F - 21.2 °F 34% 30.13 in 10.0 mi West 8.1 mph 18.4 mph N/A   Scattered Clouds
12:58 PM 48.2 °F - 24.8 °F 40% 30.13 in 10.0 mi West 10.4 mph - N/A   Scattered Clouds
1:18 PM 48.2 °F - 24.8 °F 40% 30.13 in 10.0 mi West 12.7 mph 16.1 mph N/A   Scattered Clouds
1:39 PM 48.2 °F - 24.8 °F 40% 30.12 in 10.0 mi West 9.2 mph - N/A   Scattered Clouds
1:58 PM 50.0 °F - 24.8 °F 37% 30.12 in 10.0 mi WSW 10.4 mph - N/A   Scattered Clouds
2:19 PM 51.8 °F - 23.0 °F 33% 30.11 in 10.0 mi WSW 12.7 mph - N/A   Clear
2:38 PM 51.8 °F - 24.8 °F 35% 30.11 in 10.0 mi West 11.5 mph 18.4 mph N/A   Clear
2:58 PM 51.8 °F - 24.8 °F 35% 30.10 in 10.0 mi WSW 10.4 mph 17.3 mph N/A   Clear
3:18 PM 51.8 °F - 24.8 °F 35% 30.09 in 10.0 mi SW 9.2 mph - N/A   Clear
3:40 PM 53.6 °F - 24.8 °F 33% 30.09 in 10.0 mi West 9.2 mph - N/A   Clear
4:01 PM 53.6 °F - 24.8 °F 33% 30.08 in 10.0 mi SW 13.8 mph 17.3 mph N/A   Clear
4:18 PM 53.6 °F - 21.2 °F 28% 30.08 in 10.0 mi WSW 9.2 mph - N/A   Clear
4:38 PM 53.6 °F - 21.2 °F 28% 30.08 in 10.0 mi WSW 15.0 mph 18.4 mph N/A   Clear
4:58 PM 53.6 °F - 21.2 °F 28% 30.07 in 10.0 mi SW 9.2 mph - N/A   Clear
5:18 PM 53.6 °F - 21.2 °F 28% 30.07 in 10.0 mi WSW 13.8 mph 18.4 mph N/A   Clear
5:38 PM 53.6 °F - 21.2 °F 28% 30.06 in 10.0 mi SW 10.4 mph 17.3 mph N/A   Clear
5:58 PM 53.6 °F - 23.0 °F 30% 30.06 in 10.0 mi SW 8.1 mph - N/A   Clear
6:18 PM 51.8 °F - 21.2 °F 30% 30.06 in 10.0 mi SW 10.4 mph - N/A   Clear
6:38 PM 51.8 °F - 23.0 °F 33% 30.06 in 10.0 mi WSW 6.9 mph - N/A   Clear
6:58 PM 50.0 °F - 23.0 °F 35% 30.06 in 10.0 mi WSW 5.8 mph - N/A   Clear
7:18 PM 48.2 °F - 24.8 °F 40% 30.05 in 10.0 mi WSW 4.6 mph - N/A   Clear
7:38 PM 46.4 °F 45.2 °F 24.8 °F 43% 30.06 in 10.0 mi SW 3.5 mph - N/A   Clear
7:58 PM 46.4 °F - 23.0 °F 40% 30.06 in 10.0 mi Calm Calm - N/A   Clear
8:18 PM 42.8 °F - 24.8 °F 49% 30.06 in 10.0 mi Calm Calm - N/A   Clear
8:38 PM 41.0 °F - 24.8 °F 53% 30.07 in 10.0 mi Calm Calm - N/A   Clear
8:58 PM 41.0 °F - 24.8 °F 53% 30.07 in 10.0 mi Calm Calm - N/A   Clear
9:18 PM 35.6 °F - 26.6 °F 70% 30.07 in 10.0 mi Calm Calm - N/A   Clear
9:38 PM 37.4 °F - 26.6 °F 65% 30.07 in 10.0 mi Calm Calm - N/A   Clear
9:58 PM 37.4 °F 34.9 °F 24.8 °F 60% 30.08 in 10.0 mi SW 3.5 mph - N/A   Clear
10:18 PM 35.6 °F - 26.6 °F 70% 30.08 in 10.0 mi Calm Calm - N/A   Clear
10:38 PM 35.6 °F - 26.6 °F 70% 30.08 in 10.0 mi Calm Calm - N/A   Clear
10:58 PM 35.6 °F - 24.8 °F 65% 30.08 in 10.0 mi Calm Calm - N/A   Clear
11:18 PM 35.6 °F 32.8 °F 24.8 °F 65% 30.08 in 10.0 mi SW 3.5 mph - N/A   Clear
11:38 PM 33.8 °F 30.8 °F 24.8 °F 70% 30.07 in 10.0 mi SW 3.5 mph - N/A   Clear
11:58 PM 33.8 °F - 24.8 °F 70% 30.07 in 10.0 mi Calm Calm - N/A   Clear